This is the latest recevied weather packets stored in our database for station/object K4DNM. If no packets are shown the sender has not sent any weather packets the latest 10 day(s).
| Time | Temp. | Humidity | Pressure | Rain* | Wind** | Luminosity | Snow |
|---|---|---|---|---|---|---|---|
| 1777634958 | 11.11° C | 67% | 1014.6 hPa | 0 mm | - | 45 W/m² | - |
| 1777634658 | 11.11° C | 67% | 1014.3 hPa | 0 mm | - | 34 W/m² | - |
| 1777634359 | 11.11° C | 66% | 1014.5 hPa | 0 mm | - | 21 W/m² | - |
| 1777634058 | 11.11° C | 66% | 1014.4 hPa | 0 mm | - | 13 W/m² | - |
| 1777633759 | 11.11° C | 67% | 1014.4 hPa | 0 mm | - | 13 W/m² | - |
| 1777633519 | 11.11° C | 66% | 1014.2 hPa | 0 mm | - | 16 W/m² | - |
| 1777633158 | 11.11° C | 66% | 1014.3 hPa | 0 mm | - | 10 W/m² | - |
| 1777632858 | 11.11° C | 67% | 1014.5 hPa | 0 mm | - | 6 W/m² | - |
| 1777632559 | 11.11° C | 67% | 1014.4 hPa | 0 mm | - | 5 W/m² | - |
| 1777632245 | 10.56° C | 67% | 1014.3 hPa | 0 mm | - | 5 W/m² | - |
| 1777631944 | 10.56° C | 67% | 1014.3 hPa | 0 mm | - | 3 W/m² | - |
| 1777631645 | 10.56° C | 68% | 1014.2 hPa | 0 mm | - | 3 W/m² | - |
| 1777631404 | 10.56° C | 69% | 1014.1 hPa | 0 mm | - | 2 W/m² | - |
| 1777631044 | 10.56° C | 68% | 1014 hPa | 0 mm | - | 0 W/m² | - |
| 1777630744 | 10.56° C | 68% | 1014.1 hPa | 0 mm | - | 0 W/m² | - |
| 1777630445 | 10.56° C | 69% | 1014 hPa | 0 mm | - | 0 W/m² | - |
| 1777630205 | 10.56° C | 68% | 1013.9 hPa | 0 mm | - | 0 W/m² | - |
| 1777629844 | 10.56° C | 68% | 1013.8 hPa | 0 mm | - | 0 W/m² | - |
| 1777629544 | 10.56° C | 69% | 1013.8 hPa | 0 mm | - | 0 W/m² | - |
| 1777629245 | 10.56° C | 69% | 1013.7 hPa | 0 mm | - | 0 W/m² | - |
| 1777628944 | 10.56° C | 69% | 1013.7 hPa | 0 mm | - | 0 W/m² | - |
| 1777628689 | 11.11° C | 69% | 1013.6 hPa | 0 mm | - | 0 W/m² | - |
| 1777628329 | 11.11° C | 68% | 1013.7 hPa | 0 mm | - | 0 W/m² | - |
| 1777628089 | 11.11° C | 68% | 1013.7 hPa | 0 mm | - | 0 W/m² | - |
| 1777627789 | 11.11° C | 68% | 1013.8 hPa | 0 mm | - | 0 W/m² | - |
* Rain latest hour (hover to see other rain measurements)
** Current wind speed in m/s (hover to see current wind gust speed)